#timestamp,LO_Frequency,Hit,StdDev 
1510650015.8,286046989.1,Y
1510650035.7,286046997.2,P
1510650055.5,286046997.8,N
1510650075.3,286046998.3,N
1510650095.2,286046999.3,N
1510650115.9,286046998.2,N
1510650135.7,286047004.4,N
1510650155.6,286047005.2,N
1510650175.4,286047004.2,N
1510650195.2,286047007.4,N
1510650215.0,286047007.8,N
1510650216.0,286047007.8,N
1510650235.8,286047006.3,N
1510650255.6,286047006.9,N
1510650275.4,286047007.2,N
1510650295.3,286047007.6,N
1510650315.1,286047007.0,N
1510650335.8,286047010.4,N
1510650355.7,286047010.0,N
1510650375.5,286047010.0,N
1510650395.3,286047009.6,N
1510650415.2,286047011.7,N
1510650435.9,286047010.9,N
1510650455.7,286047011.2,N
1510650475.5,286047012.8,N
1510650495.4,286047010.6,N
1510650515.2,286047008.3,N
1510650535.0,286047007.8,N
1510650535.9,286047007.8,N
1510650555.8,286047006.9,N
1510650575.6,286047009.1,N
1510650595.4,286047007.2,N
1510650615.3,286047002.9,N
1510650635.1,286047005.8,N
1510650655.8,286047007.1,N
1510650675.7,286047006.0,N
1510650695.5,286047005.9,N
1510650715.3,286047004.8,N
1510650735.2,286047001.3,N
1510650755.9,286047003.7,N
1510650775.7,286047006.5,N
1510650795.6,286047007.9,Y
1510650815.4,286047004.1,P
1510650835.2,286046998.8,N
1510650855.1,286047001.6,N
1510650856.0,286047001.6,N
1510650875.8,286047001.4,N
1510650895.6,286047002.9,N
1510650915.4,286047004.5,N
1510650935.3,286047005.8,N
1510650955.1,286047004.9,N
1510650975.8,286047007.2,N
1510650995.7,286047006.3,N
1510651015.5,286047009.0,Y
1510651035.3,286047003.5,P
1510651055.2,286047005.2,P
1510651075.0,286047008.9,P
1510651075.9,286047008.9,Y
1510651095.8,286047005.6,P
1510651115.6,286047003.9,P
1510651135.4,286047000.0,N
1510651155.2,286046999.0,N
1510651175.1,286047002.1,N
1510651176.0,286047002.1,N
1510651195.8,286047000.9,N
1510651215.6,286046997.1,N
1510651235.5,286046994.4,N
1510651255.3,286046992.2,N
1510651275.1,286046991.8,N
1510651295.9,286046992.1,N
1510651315.7,286046990.1,N
1510651335.5,286046988.8,N
1510651355.4,286046988.6,N
1510651375.2,286046991.5,N
1510651395.0,286046987.3,N
1510651395.9,286046987.3,N
1510651415.7,286046989.3,N
1510651435.6,286046989.6,N
1510651455.4,286046989.8,N
1510651475.2,286046989.1,N
1510651495.1,286046990.0,N
1510651496.0,286046990.0,N
1510651515.8,286046987.6,N
1510651535.6,286046985.3,N
1510651555.5,286046984.3,N
1510651575.3,286046985.4,N
1510651595.1,286046987.3,N
1510651615.9,286046988.8,N
1510651635.7,286046989.6,N
1510651655.5,286046985.0,N
1510651675.4,286046986.9,N
1510651695.2,286046994.8,N
1510651715.0,286046991.7,N
1510651715.9,286046991.7,N
1510651735.7,286046994.2,N
1510651755.6,286046997.1,N
1510651775.4,286047001.6,N
1510651795.2,286047001.9,N
1510651815.1,286047001.1,N
1510651816.0,286047001.1,N
1510651835.8,286046999.6,N
1510651855.6,286046995.8,N
1510651875.5,286046996.4,N
1510651895.3,286046993.2,N
1510651915.1,286046990.1,N
1510651935.9,286046993.5,N
1510651955.7,286046993.8,N
1510651975.5,286046997.8,N
1510651995.4,286046996.6,N
1510652015.2,286046995.8,N
1510652035.0,286046995.7,N
1510652035.9,286046995.7,N
1510652055.8,286046999.3,N
1510652075.6,286046998.6,N
1510652095.4,286047004.3,N
1510652115.3,286046998.2,N
1510652135.1,286046997.9,N
1510652136.0,286046997.9,N
1510652155.8,286046993.7,N
1510652175.6,286046995.0,N
1510652195.5,286046998.3,N
1510652215.3,286047001.2,N
1510652235.1,286046999.1,N
1510652255.9,286046995.1,N
1510652275.7,286046996.6,N
1510652295.5,286047001.1,N
1510652315.4,286046998.4,N
1510652335.2,286047002.0,N
1510652355.0,286047001.9,N
1510652355.9,286047001.9,N
1510652375.8,286047000.5,N
1510652395.6,286047003.5,N
1510652415.4,286047005.5,N
1510652435.3,286047003.9,N
1510652455.1,286047002.5,N
1510652456.0,286047002.5,N
1510652475.8,286047001.0,N
1510652495.7,286046998.4,N
1510652515.5,286046996.6,N
1510652535.3,286046999.3,N
1510652555.1,286046999.6,N
1510652575.9,286046999.2,N
1510652595.7,286046999.0,N
1510652615.5,286046998.5,N
1510652635.4,286046998.5,N
1510652655.2,286046996.0,N
1510652675.0,286046993.7,N
1510652675.9,286046993.7,N
1510652695.8,286046995.1,N
1510652715.6,286046998.7,N
1510652735.4,286046996.0,N
1510652755.3,286046994.3,N
1510652775.1,286046992.7,N
1510652776.0,286046992.7,N
1510652795.8,286046993.4,N
1510652815.7,286046995.9,N
1510652835.5,286046992.6,N
1510652855.3,286046992.0,N
1510652875.2,286046993.3,N
1510652895.9,286046996.3,N
1510652915.8,286046992.3,N
1510652935.6,286046988.6,Y
1510652955.5,286046996.1,P
1510652975.3,286046996.6,P
1510652995.1,286046997.5,P
1510653015.9,286046996.0,Y
1510653035.7,286047000.6,P
1510653055.5,286047000.6,N
1510653075.4,286047001.5,N
1510653095.2,286046999.7,N
1510653115.0,286047000.3,N
1510653115.9,286047000.3,N
1510653135.8,286047006.0,Y
1510653155.6,286047003.2,P
1510653175.4,286047004.4,N
1510653195.3,286047004.7,N
1510653215.1,286047008.5,Y
1510653235.8,286047003.2,P
1510653255.7,286047007.0,P
1510653275.5,286047007.5,P
1510653295.3,286047003.3,N
1510653315.2,286047003.9,N
1510653335.9,286047005.3,N
1510653355.7,286047008.0,Y
1510653375.6,286047009.1,P
1510653395.4,286047008.9,P
1510653415.2,286047009.5,P
1510653435.1,286047009.0,Y
1510653436.0,286047009.0,P
1510653455.8,286046999.9,N
1510653475.6,286047002.4,N
1510653495.5,286047002.2,N
1510653515.3,286047001.7,N
1510653535.1,286046998.6,N
1510653555.9,286046998.1,N
1510653575.7,286046997.5,N
1510653595.5,286046996.0,N
